Time,TemperatureF,DewpointF,PressureIn,WindDirection,WindDirectionDegrees,WindSpeedMPH,WindSpeedGustMPH,Humidity,HourlyPrecipIn,Conditions,Clouds,dailyrainin,SoftwareType,DateUTC
2013-03-11 00:01:00,28.8,18.8,29.72,WNW,292,0.0,0.0,66,0.00,,,0.00,LWC V2.10 B1813,2013-03-11 06:01:00,
2013-03-11 00:06:00,28.8,19.0,29.71,WNW,292,0.0,0.0,67,0.00,,,0.00,LWC V2.10 B1813,2013-03-11 06:06:00,
2013-03-11 00:11:00,28.6,19.0,29.72,WNW,292,0.0,0.0,67,0.00,,,0.00,LWC V2.10 B1813,2013-03-11 06:11:00,
2013-03-11 00:16:00,28.6,19.0,29.71,WNW,292,0.0,0.0,67,0.00,,,0.00,LWC V2.10 B1813,2013-03-11 06:16:00,
2013-03-11 00:21:00,28.4,18.9,29.71,WNW,292,0.0,0.0,67,0.00,,,0.00,LWC V2.10 B1813,2013-03-11 06:21:00,
2013-03-11 00:26:00,28.6,19.0,29.71,WNW,292,0.0,0.0,67,0.00,,,0.00,LWC V2.10 B1813,2013-03-11 06:26:00,
2013-03-11 00:32:00,28.6,19.4,29.71,WNW,292,0.0,0.0,68,0.00,,,0.00,LWC V2.10 B1813,2013-03-11 06:32:00,
2013-03-11 00:37:00,28.4,19.2,29.71,West,270,0.0,0.0,68,0.00,,,0.00,LWC V2.10 B1813,2013-03-11 06:37:00,
2013-03-11 00:42:00,28.6,19.4,29.71,West,270,0.0,0.0,68,0.00,,,0.00,LWC V2.10 B1813,2013-03-11 06:42:00,
2013-03-11 00:48:00,28.8,19.5,29.70,SW,225,0.0,0.0,68,0.00,,,0.00,LWC V2.10 B1813,2013-03-11 06:48:00,
2013-03-11 00:53:00,28.8,19.5,29.70,SW,225,0.0,0.0,68,0.00,,,0.00,LWC V2.10 B1813,2013-03-11 06:53:00,
2013-03-11 00:58:00,28.8,19.5,29.70,SW,225,0.0,0.0,68,0.00,,,0.00,LWC V2.10 B1813,2013-03-11 06:58:00,
2013-03-11 01:03:00,28.9,19.7,29.69,SW,225,0.0,0.0,68,0.00,,,0.00,LWC V2.10 B1813,2013-03-11 07:03:00,
2013-03-11 01:08:00,28.9,19.7,29.70,SW,225,0.0,0.0,68,0.00,,,0.00,LWC V2.10 B1813,2013-03-11 07:08:00,
2013-03-11 01:13:00,28.9,19.7,29.69,SW,225,0.0,0.0,68,0.00,,,0.00,LWC V2.10 B1813,2013-03-11 07:13:00,
2013-03-11 01:18:00,28.9,19.7,29.69,SW,225,0.0,0.0,68,0.00,,,0.00,LWC V2.10 B1813,2013-03-11 07:18:00,
2013-03-11 01:23:00,29.1,19.9,29.69,SW,225,0.0,0.0,68,0.00,,,0.00,LWC V2.10 B1813,2013-03-11 07:23:00,
2013-03-11 01:28:00,29.5,20.2,29.69,WSW,247,0.0,0.0,68,0.00,,,0.00,LWC V2.10 B1813,2013-03-11 07:28:00,
2013-03-11 01:33:00,29.7,20.0,29.69,WSW,247,0.0,0.0,67,0.00,,,0.00,LWC V2.10 B1813,2013-03-11 07:33:00,
2013-03-11 01:38:00,29.7,20.4,29.69,WSW,247,0.0,0.0,68,0.00,,,0.00,LWC V2.10 B1813,2013-03-11 07:38:00,
2013-03-11 01:43:00,30.0,20.3,29.69,WSW,247,0.0,0.0,67,0.00,,,0.00,LWC V2.10 B1813,2013-03-11 07:43:00,
2013-03-11 01:48:00,30.0,20.3,29.69,NNE,22,0.0,0.0,67,0.00,,,0.00,LWC V2.10 B1813,2013-03-11 07:48:00,
2013-03-11 01:53:00,30.2,20.5,29.69,NW,315,0.0,0.0,67,0.00,,,0.00,LWC V2.10 B1813,2013-03-11 07:53:00,
2013-03-11 01:58:00,30.6,20.8,29.68,NW,315,0.0,0.0,67,0.00,,,0.00,LWC V2.10 B1813,2013-03-11 07:58:00,
2013-03-11 02:03:00,30.6,20.8,29.68,NW,315,0.0,0.0,67,0.00,,,0.00,LWC V2.10 B1813,2013-03-11 08:03:00,
2013-03-11 02:08:00,30.6,20.8,29.68,NW,315,0.0,0.0,67,0.00,,,0.00,LWC V2.10 B1813,2013-03-11 08:08:00,
2013-03-11 02:13:00,30.9,20.8,29.68,West,270,0.0,0.0,66,0.00,,,0.00,LWC V2.10 B1813,2013-03-11 08:13:00,
2013-03-11 02:18:00,31.3,21.2,29.68,West,270,0.0,0.0,66,0.00,,,0.00,LWC V2.10 B1813,2013-03-11 08:18:00,
2013-03-11 02:23:00,31.1,21.0,29.68,West,270,0.0,0.0,66,0.00,,,0.00,LWC V2.10 B1813,2013-03-11 08:23:00,
2013-03-11 02:28:00,30.9,21.2,29.68,West,270,0.0,0.0,67,0.00,,,0.00,LWC V2.10 B1813,2013-03-11 08:28:00,
2013-03-11 02:33:00,30.9,21.2,29.67,SE,135,0.0,0.0,67,0.00,,,0.00,LWC V2.10 B1813,2013-03-11 08:33:00,
2013-03-11 02:38:00,31.1,21.0,29.67,SE,135,0.0,0.0,66,0.00,,,0.00,LWC V2.10 B1813,2013-03-11 08:38:00,
2013-03-11 02:43:00,31.3,21.2,29.67,ENE,67,0.0,0.0,66,0.00,,,0.00,LWC V2.10 B1813,2013-03-11 08:43:00,
2013-03-11 02:48:00,31.6,21.6,29.67,ENE,67,0.0,0.0,66,0.00,,,0.00,LWC V2.10 B1813,2013-03-11 08:48:00,
2013-03-11 02:53:00,31.3,20.8,29.67,ESE,112,0.0,0.0,65,0.00,,,0.00,LWC V2.10 B1813,2013-03-11 08:53:00,
2013-03-11 02:58:00,31.6,21.2,29.66,ENE,67,0.0,0.0,65,0.00,,,0.00,LWC V2.10 B1813,2013-03-11 08:58:00,
2013-03-11 03:03:00,31.6,21.2,29.66,WNW,292,0.0,0.0,65,0.00,,,0.00,LWC V2.10 B1813,2013-03-11 09:03:00,
2013-03-11 03:08:00,31.6,21.2,29.66,NW,315,0.0,0.0,65,0.00,,,0.00,LWC V2.10 B1813,2013-03-11 09:08:00,
2013-03-11 03:13:00,31.8,21.4,29.66,NW,315,0.0,0.0,65,0.00,,,0.00,LWC V2.10 B1813,2013-03-11 09:13:00,
2013-03-11 03:18:00,31.8,21.4,29.66,SSW,202,0.0,0.0,65,0.00,,,0.00,LWC V2.10 B1813,2013-03-11 09:18:00,
2013-03-11 03:23:00,32.2,21.7,29.65,SSW,202,0.0,0.0,65,0.00,,,0.00,LWC V2.10 B1813,2013-03-11 09:23:00,
2013-03-11 03:28:00,32.7,21.8,29.66,West,270,0.0,0.0,64,0.00,,,0.00,LWC V2.10 B1813,2013-03-11 09:28:00,
2013-03-11 03:33:00,33.1,21.8,29.65,North,0,0.0,0.0,63,0.00,,,0.00,LWC V2.10 B1813,2013-03-11 09:33:00,
2013-03-11 03:38:00,33.6,21.9,29.65,SSE,157,0.0,0.0,62,0.00,,,0.00,LWC V2.10 B1813,2013-03-11 09:38:00,
2013-03-11 03:43:00,34.0,21.9,29.65,SSE,157,0.0,0.0,61,0.00,,,0.00,LWC V2.10 B1813,2013-03-11 09:43:00,
2013-03-11 03:48:00,34.2,21.7,29.65,SSE,157,0.0,0.0,60,0.00,,,0.00,LWC V2.10 B1813,2013-03-11 09:48:00,
2013-03-11 03:53:00,34.2,21.7,29.65,SSE,157,0.0,0.0,60,0.00,,,0.00,LWC V2.10 B1813,2013-03-11 09:53:00,
2013-03-11 03:58:00,34.2,21.7,29.64,SSE,157,0.0,0.0,60,0.00,,,0.00,LWC V2.10 B1813,2013-03-11 09:58:00,
2013-03-11 04:03:00,34.2,22.1,29.65,SSE,157,0.0,0.0,61,0.00,,,0.00,LWC V2.10 B1813,2013-03-11 10:03:00,
2013-03-11 04:08:00,34.3,21.9,29.65,SSE,157,0.0,0.0,60,0.00,,,0.00,LWC V2.10 B1813,2013-03-11 10:08:00,
2013-03-11 04:13:00,34.3,21.5,29.65,SSE,157,0.0,0.0,59,0.00,,,0.00,LWC V2.10 B1813,2013-03-11 10:13:00,
2013-03-11 04:18:00,34.3,21.5,29.64,SSE,157,0.0,0.0,59,0.00,,,0.00,LWC V2.10 B1813,2013-03-11 10:18:00,
2013-03-11 04:23:00,34.5,21.2,29.64,SW,225,0.0,0.0,58,0.00,,,0.00,LWC V2.10 B1813,2013-03-11 10:23:00,
2013-03-11 04:28:00,34.9,21.2,29.64,SW,225,0.0,0.0,57,0.00,,,0.00,LWC V2.10 B1813,2013-03-11 10:28:00,
2013-03-11 04:33:00,34.7,21.0,29.64,SW,225,0.0,0.0,57,0.00,,,0.00,LWC V2.10 B1813,2013-03-11 10:33:00,
2013-03-11 04:38:00,34.7,21.0,29.64,SW,225,0.0,0.0,57,0.00,,,0.00,LWC V2.10 B1813,2013-03-11 10:38:00,
2013-03-11 04:43:00,34.3,20.2,29.64,SW,225,0.0,0.0,56,0.00,,,0.00,LWC V2.10 B1813,2013-03-11 10:43:00,
2013-03-11 04:48:00,34.3,20.6,29.64,SW,225,0.0,0.0,57,0.00,,,0.00,LWC V2.10 B1813,2013-03-11 10:48:00,
2013-03-11 04:53:00,34.0,20.3,29.64,SW,225,0.0,0.0,57,0.00,,,0.00,LWC V2.10 B1813,2013-03-11 10:53:00,
2013-03-11 04:58:00,33.8,19.7,29.64,SW,225,0.0,0.0,56,0.00,,,0.00,LWC V2.10 B1813,2013-03-11 10:58:00,
2013-03-11 05:03:00,34.2,20.0,29.64,SW,225,0.0,0.0,56,0.00,,,0.00,LWC V2.10 B1813,2013-03-11 11:03:00,
2013-03-11 05:08:00,34.0,19.8,29.64,SW,225,0.0,0.0,56,0.00,,,0.00,LWC V2.10 B1813,2013-03-11 11:08:00,
2013-03-11 05:13:00,34.2,19.6,29.65,SW,225,0.0,0.0,55,0.00,,,0.00,LWC V2.10 B1813,2013-03-11 11:13:00,
2013-03-11 05:18:00,34.3,19.8,29.65,SW,225,0.0,0.0,55,0.00,,,0.00,LWC V2.10 B1813,2013-03-11 11:18:00,
2013-03-11 05:23:00,34.3,19.8,29.65,SW,225,0.0,0.0,55,0.00,,,0.00,LWC V2.10 B1813,2013-03-11 11:23:00,
2013-03-11 05:28:00,34.3,19.8,29.65,SW,225,0.0,0.0,55,0.00,,,0.00,LWC V2.10 B1813,2013-03-11 11:28:00,
2013-03-11 05:33:00,34.2,19.6,29.65,WSW,247,0.0,0.0,55,0.00,,,0.00,LWC V2.10 B1813,2013-03-11 11:33:00,
2013-03-11 05:38:00,34.3,19.8,29.64,SSE,157,0.0,0.0,55,0.00,,,0.00,LWC V2.10 B1813,2013-03-11 11:38:00,
2013-03-11 05:43:00,34.3,19.8,29.65,SSW,202,0.0,0.0,55,0.00,,,0.00,LWC V2.10 B1813,2013-03-11 11:43:00,
2013-03-11 05:48:00,34.3,20.2,29.66,NE,45,0.0,0.0,56,0.00,,,0.00,LWC V2.10 B1813,2013-03-11 11:48:00,
2013-03-11 05:53:00,34.2,20.2,29.65,SW,225,0.0,0.0,56,0.00,,,0.00,LWC V2.10 B1813,2013-03-11 11:53:00,
2013-03-11 05:58:00,34.3,20.2,29.65,SW,225,0.0,0.0,56,0.00,,,0.00,LWC V2.10 B1813,2013-03-11 11:58:00,
2013-03-11 06:03:00,34.3,20.2,29.66,WNW,292,0.0,0.0,56,0.00,,,0.00,LWC V2.10 B1813,2013-03-11 12:03:00,
2013-03-11 06:08:00,34.2,20.0,29.66,SSE,157,0.0,0.0,56,0.00,,,0.00,LWC V2.10 B1813,2013-03-11 12:08:00,
2013-03-11 06:13:00,34.3,20.2,29.66,SSE,157,0.0,0.0,56,0.00,,,0.00,LWC V2.10 B1813,2013-03-11 12:13:00,
2013-03-11 06:18:00,34.3,19.8,29.66,West,270,0.0,0.0,55,0.00,,,0.00,LWC V2.10 B1813,2013-03-11 12:18:00,
2013-03-11 06:23:00,34.9,19.7,29.67,SW,225,0.0,0.0,54,0.00,,,0.00,LWC V2.10 B1813,2013-03-11 12:23:00,
2013-03-11 06:28:00,35.2,20.2,29.66,WSW,247,0.0,0.0,54,0.00,,,0.00,LWC V2.10 B1813,2013-03-11 12:28:00,
2013-03-11 06:33:00,34.9,19.9,29.66,SW,225,0.0,0.0,54,0.00,,,0.00,LWC V2.10 B1813,2013-03-11 12:33:00,
2013-03-11 06:38:00,34.9,19.9,29.66,SW,225,0.0,0.0,54,0.00,,,0.00,LWC V2.10 B1813,2013-03-11 12:38:00,
2013-03-11 06:43:00,34.3,19.3,29.66,SW,225,0.0,0.0,54,0.00,,,0.00,LWC V2.10 B1813,2013-03-11 12:43:00,
2013-03-11 06:48:00,34.2,19.6,29.66,SW,225,0.0,0.0,55,0.00,,,0.00,LWC V2.10 B1813,2013-03-11 12:48:00,
2013-03-11 06:53:00,33.4,19.2,29.66,SW,225,0.0,0.0,56,0.00,,,0.00,LWC V2.10 B1813,2013-03-11 12:53:00,
2013-03-11 06:58:00,32.5,19.0,29.66,SW,225,0.0,0.0,57,0.00,,,0.00,LWC V2.10 B1813,2013-03-11 12:58:00,
2013-03-11 07:03:00,32.4,18.8,29.66,SW,225,0.0,0.0,57,0.00,,,0.00,LWC V2.10 B1813,2013-03-11 13:03:00,
2013-03-11 07:08:00,32.0,19.1,29.66,SW,225,0.0,0.0,58,0.00,,,0.00,LWC V2.10 B1813,2013-03-11 13:08:00,
2013-03-11 07:13:00,32.0,18.9,29.66,SW,225,0.0,0.0,58,0.00,,,0.00,LWC V2.10 B1813,2013-03-11 13:13:00,
2013-03-11 07:18:00,31.8,19.1,29.67,SW,225,0.0,0.0,59,0.00,,,0.00,LWC V2.10 B1813,2013-03-11 13:18:00,
2013-03-11 07:23:00,32.0,18.9,29.67,SW,225,0.0,0.0,58,0.00,,,0.00,LWC V2.10 B1813,2013-03-11 13:23:00,
2013-03-11 07:28:00,32.7,19.5,29.68,WSW,247,0.0,0.0,58,0.00,,,0.00,LWC V2.10 B1813,2013-03-11 13:28:00,
2013-03-11 07:33:00,32.7,19.5,29.68,WSW,247,0.0,0.0,58,0.00,,,0.00,LWC V2.10 B1813,2013-03-11 13:33:00,
2013-03-11 07:38:00,33.3,19.2,29.68,SW,225,0.0,0.0,56,0.00,,,0.00,LWC V2.10 B1813,2013-03-11 13:38:00,
2013-03-11 07:43:00,33.6,19.1,29.68,West,270,0.0,0.0,55,0.00,,,0.00,LWC V2.10 B1813,2013-03-11 13:43:00,
2013-03-11 07:48:00,34.3,19.3,29.68,SW,225,0.0,0.0,54,0.00,,,0.00,LWC V2.10 B1813,2013-03-11 13:48:00,
2013-03-11 07:53:00,34.9,19.9,29.68,NNW,337,0.0,0.0,54,0.00,,,0.00,LWC V2.10 B1813,2013-03-11 13:53:00,
2013-03-11 07:58:00,35.2,19.8,29.68,WSW,247,0.0,0.0,53,0.00,,,0.00,LWC V2.10 B1813,2013-03-11 13:58:00,
2013-03-11 08:03:00,36.1,19.8,29.68,North,0,0.0,0.0,51,0.00,,,0.00,LWC V2.10 B1813,2013-03-11 14:03:00,
2013-03-11 08:08:00,36.3,19.5,29.69,WNW,292,0.0,0.0,50,0.00,,,0.00,LWC V2.10 B1813,2013-03-11 14:08:00,
2013-03-11 08:13:00,36.7,19.8,29.69,WNW,292,0.0,0.0,50,0.00,,,0.00,LWC V2.10 B1813,2013-03-11 14:13:00,
2013-03-11 08:18:00,37.0,20.2,29.69,WNW,292,0.0,0.0,50,0.00,,,0.00,LWC V2.10 B1813,2013-03-11 14:18:00,
2013-03-11 08:23:00,37.2,19.8,29.69,West,270,0.0,0.0,49,0.00,,,0.00,LWC V2.10 B1813,2013-03-11 14:23:00,
2013-03-11 08:28:00,37.9,19.9,29.70,NNW,337,0.0,0.0,48,0.00,,,0.00,LWC V2.10 B1813,2013-03-11 14:28:00,
2013-03-11 08:33:00,38.8,20.2,29.70,NW,315,0.0,0.0,47,0.00,,,0.00,LWC V2.10 B1813,2013-03-11 14:33:00,
2013-03-11 08:38:00,39.2,20.0,29.69,West,270,0.0,0.0,46,0.00,,,0.00,LWC V2.10 B1813,2013-03-11 14:38:00,
2013-03-11 08:43:00,39.9,20.1,29.69,WSW,247,0.0,0.0,45,0.00,,,0.00,LWC V2.10 B1813,2013-03-11 14:43:00,
2013-03-11 08:48:00,40.6,20.3,29.70,West,270,0.0,0.0,44,0.00,,,0.00,LWC V2.10 B1813,2013-03-11 14:48:00,
2013-03-11 08:53:00,41.4,20.9,29.70,West,270,0.0,0.0,44,0.00,,,0.00,LWC V2.10 B1813,2013-03-11 14:53:00,
2013-03-11 08:58:00,43.0,21.4,29.69,West,270,0.0,0.0,42,0.00,,,0.00,LWC V2.10 B1813,2013-03-11 14:58:00,
2013-03-11 09:03:00,44.1,21.8,29.69,NNW,337,0.0,0.0,41,0.00,,,0.00,LWC V2.10 B1813,2013-03-11 15:03:00,
2013-03-11 09:08:00,45.1,22.2,29.69,ENE,67,0.0,0.0,40,0.00,,,0.00,LWC V2.10 B1813,2013-03-11 15:08:00,
2013-03-11 09:13:00,46.2,23.2,29.69,SE,135,0.0,0.0,40,0.00,,,0.00,LWC V2.10 B1813,2013-03-11 15:13:00,
2013-03-11 09:18:00,47.5,23.0,29.68,NE,45,0.0,0.0,38,0.00,,,0.00,LWC V2.10 B1813,2013-03-11 15:18:00,
2013-03-11 09:23:00,48.4,23.3,29.69,ENE,67,0.0,0.0,38,0.00,,,0.00,LWC V2.10 B1813,2013-03-11 15:23:00,
2013-03-11 09:28:00,49.6,24.2,29.69,WNW,292,0.0,0.0,37,0.00,,,0.00,LWC V2.10 B1813,2013-03-11 15:28:00,
2013-03-11 09:34:00,50.2,24.0,29.69,NE,45,0.0,0.0,36,0.00,,,0.00,LWC V2.10 B1813,2013-03-11 15:34:00,
2013-03-11 09:39:00,50.7,23.8,29.69,NE,45,0.0,0.0,35,0.00,,,0.00,LWC V2.10 B1813,2013-03-11 15:39:00,
2013-03-11 09:44:00,50.4,22.8,29.69,NW,315,0.0,0.0,34,0.00,,,0.00,LWC V2.10 B1813,2013-03-11 15:44:00,
2013-03-11 09:49:00,50.7,23.1,29.70,NNE,22,0.0,0.0,34,0.00,,,0.00,LWC V2.10 B1813,2013-03-11 15:49:00,
2013-03-11 09:54:00,50.2,22.7,29.70,West,270,0.0,0.0,34,0.00,,,0.00,LWC V2.10 B1813,2013-03-11 15:54:00,
2013-03-11 09:59:00,50.5,23.0,29.70,WSW,247,0.0,0.0,34,0.00,,,0.00,LWC V2.10 B1813,2013-03-11 15:59:00,
2013-03-11 10:04:00,50.9,23.3,29.70,WSW,247,0.0,0.0,34,0.00,,,0.00,LWC V2.10 B1813,2013-03-11 16:04:00,
2013-03-11 10:09:00,51.4,23.8,29.70,West,270,0.0,0.0,34,0.00,,,0.00,LWC V2.10 B1813,2013-03-11 16:09:00,
2013-03-11 10:14:00,51.4,23.1,29.70,WSW,247,0.0,0.0,33,0.00,,,0.00,LWC V2.10 B1813,2013-03-11 16:14:00,
2013-03-11 10:19:00,51.4,23.1,29.70,NW,315,0.0,0.0,33,0.00,,,0.00,LWC V2.10 B1813,2013-03-11 16:19:00,
2013-03-11 10:24:00,51.1,22.8,29.70,WSW,247,0.0,0.0,33,0.00,,,0.00,LWC V2.10 B1813,2013-03-11 16:24:00,
2013-03-11 10:29:00,51.6,24.0,29.70,SE,135,0.0,0.0,34,0.00,,,0.00,LWC V2.10 B1813,2013-03-11 16:29:00,
2013-03-11 10:34:00,51.6,24.0,29.69,SSE,157,0.0,0.0,34,0.00,,,0.00,LWC V2.10 B1813,2013-03-11 16:34:00,
2013-03-11 10:39:00,52.3,23.9,29.69,South,180,0.0,0.0,33,0.00,,,0.00,LWC V2.10 B1813,2013-03-11 16:39:00,
2013-03-11 10:44:00,52.5,24.8,29.69,WNW,292,0.0,0.0,34,0.00,,,0.00,LWC V2.10 B1813,2013-03-11 16:44:00,
2013-03-11 10:49:00,53.2,24.0,29.70,NNE,22,0.0,0.0,32,0.00,,,0.00,LWC V2.10 B1813,2013-03-11 16:49:00,
2013-03-11 10:54:00,52.7,23.6,29.70,WNW,292,0.0,0.0,32,0.00,,,0.00,LWC V2.10 B1813,2013-03-11 16:54:00,
2013-03-11 10:59:00,53.2,24.0,29.69,ESE,112,0.0,0.0,32,0.00,,,0.00,LWC V2.10 B1813,2013-03-11 16:59:00,
2013-03-11 11:04:00,54.3,24.9,29.69,SW,225,0.0,0.0,32,0.00,,,0.00,LWC V2.10 B1813,2013-03-11 17:04:00,
2013-03-11 11:09:00,55.0,25.5,29.69,SW,225,0.0,0.0,32,0.00,,,0.00,LWC V2.10 B1813,2013-03-11 17:09:00,
2013-03-11 11:14:00,55.0,25.5,29.69,SSW,202,0.0,0.0,32,0.00,,,0.00,LWC V2.10 B1813,2013-03-11 17:14:00,
2013-03-11 11:19:00,55.6,25.3,29.69,SW,225,0.0,0.0,31,0.00,,,0.00,LWC V2.10 B1813,2013-03-11 17:19:00,
2013-03-11 11:24:00,55.9,25.6,29.69,NW,315,0.0,0.0,31,0.00,,,0.00,LWC V2.10 B1813,2013-03-11 17:24:00,
2013-03-11 11:29:00,55.9,25.6,29.68,WSW,247,0.0,0.0,31,0.00,,,0.00,LWC V2.10 B1813,2013-03-11 17:29:00,
2013-03-11 11:34:00,56.1,25.1,29.67,WSW,247,0.0,0.0,30,0.00,,,0.00,LWC V2.10 B1813,2013-03-11 17:34:00,
2013-03-11 11:39:00,56.3,25.2,29.67,WSW,247,0.0,0.0,30,0.00,,,0.00,LWC V2.10 B1813,2013-03-11 17:39:00,
2013-03-11 11:44:00,57.0,26.6,29.67,West,270,0.0,0.0,31,0.00,,,0.00,LWC V2.10 B1813,2013-03-11 17:44:00,
2013-03-11 11:49:00,57.0,25.9,29.68,WNW,292,0.0,0.0,30,0.00,,,0.00,LWC V2.10 B1813,2013-03-11 17:49:00,
2013-03-11 11:54:00,57.7,26.5,29.66,WSW,247,0.0,0.0,30,0.00,,,0.00,LWC V2.10 B1813,2013-03-11 17:54:00,
2013-03-11 11:59:00,57.6,25.4,29.66,NW,315,0.0,0.0,29,0.00,,,0.00,LWC V2.10 B1813,2013-03-11 17:59:00,
2013-03-11 12:04:00,57.4,25.2,29.66,WSW,247,2.0,2.0,29,0.00,,,0.00,LWC V2.10 B1813,2013-03-11 18:04:00,
2013-03-11 12:09:00,57.6,26.4,29.66,SW,225,22.4,22.4,30,0.00,,,0.00,LWC V2.10 B1813,2013-03-11 18:09:00,
2013-03-11 12:14:00,57.0,25.9,29.66,SW,225,3.8,3.8,30,0.00,,,0.00,LWC V2.10 B1813,2013-03-11 18:14:00,
2013-03-11 12:19:00,57.6,26.4,29.66,WSW,247,6.5,6.5,30,0.00,,,0.00,LWC V2.10 B1813,2013-03-11 18:19:00,
2013-03-11 12:24:00,57.0,25.9,29.65,SW,225,0.0,5.1,30,0.00,,,0.00,LWC V2.10 B1813,2013-03-11 18:24:00,
2013-03-11 12:29:00,57.4,26.2,29.65,South,180,0.0,0.0,30,0.00,,,0.00,LWC V2.10 B1813,2013-03-11 18:29:00,
2013-03-11 12:34:00,57.7,26.5,29.64,WSW,247,6.3,6.3,30,0.00,,,0.00,LWC V2.10 B1813,2013-03-11 18:34:00,
2013-03-11 12:39:00,57.9,25.7,29.64,West,270,5.6,5.6,29,0.00,,,0.00,LWC V2.10 B1813,2013-03-11 18:39:00,
2013-03-11 12:44:00,57.7,26.5,29.64,SSW,202,0.0,0.0,30,0.00,,,0.00,LWC V2.10 B1813,2013-03-11 18:44:00,
2013-03-11 12:49:00,57.0,26.1,29.64,SSW,202,0.0,4.7,29,0.00,,,0.00,LWC V2.10 B1813,2013-03-11 18:49:00,
2013-03-11 12:54:00,57.6,26.4,29.64,North,0,0.0,2.9,30,0.00,,,0.00,LWC V2.10 B1813,2013-03-11 18:54:00,
2013-03-11 12:59:00,57.4,26.2,29.63,WSW,247,0.0,0.0,30,0.00,,,0.00,LWC V2.10 B1813,2013-03-11 18:59:00,
2013-03-11 13:04:00,56.7,25.6,29.63,NW,315,0.0,2.5,30,0.00,,,0.00,LWC V2.10 B1813,2013-03-11 19:04:00,
2013-03-11 13:09:00,56.3,25.2,29.63,NNE,22,2.9,10.1,30,0.00,,,0.00,LWC V2.10 B1813,2013-03-11 19:09:00,
2013-03-11 13:14:00,56.1,25.1,29.63,WNW,292,6.5,6.5,30,0.00,,,0.00,LWC V2.10 B1813,2013-03-11 19:14:00,
2013-03-11 13:19:00,56.1,25.1,29.63,WNW,292,6.0,6.0,30,0.00,,,0.00,LWC V2.10 B1813,2013-03-11 19:19:00,
2013-03-11 13:24:00,55.9,24.9,29.63,West,270,4.0,5.4,30,0.00,,,0.00,LWC V2.10 B1813,2013-03-11 19:24:00,
2013-03-11 13:29:00,56.8,25.7,29.63,SSW,202,14.1,14.1,30,0.00,,,0.00,LWC V2.10 B1813,2013-03-11 19:29:00,
2013-03-11 13:34:00,56.5,25.7,29.63,West,270,2.9,10.1,31,0.00,,,0.00,LWC V2.10 B1813,2013-03-11 19:34:00,
2013-03-11 13:39:00,56.8,26.4,29.63,NNE,22,0.0,6.0,31,0.00,,,0.00,LWC V2.10 B1813,2013-03-11 19:39:00,
2013-03-11 13:44:00,56.5,25.4,29.63,WSW,247,0.0,0.0,30,0.00,,,0.00,LWC V2.10 B1813,2013-03-11 19:44:00,
2013-03-11 13:49:00,57.0,26.1,29.63,WNW,292,9.6,12.5,30,0.00,,,0.00,LWC V2.10 B1813,2013-03-11 19:49:00,
2013-03-11 13:54:00,57.2,26.1,29.62,SSW,202,6.0,6.0,30,0.00,,,0.00,LWC V2.10 B1813,2013-03-11 19:54:00,
2013-03-11 13:59:00,58.1,26.9,29.63,West,270,0.0,0.0,30,0.00,,,0.00,LWC V2.10 B1813,2013-03-11 19:59:00,
2013-03-11 14:04:00,58.6,26.4,29.62,West,270,2.2,4.9,29,0.00,,,0.00,LWC V2.10 B1813,2013-03-11 20:04:00,
2013-03-11 14:09:00,58.6,26.4,29.62,WNW,292,6.7,12.5,29,0.00,,,0.00,LWC V2.10 B1813,2013-03-11 20:09:00,
2013-03-11 14:14:00,58.1,25.9,29.61,West,270,6.0,6.0,29,0.00,,,0.00,LWC V2.10 B1813,2013-03-11 20:14:00,
2013-03-11 14:19:00,58.3,26.7,29.61,South,180,0.9,3.4,29,0.00,,,0.00,LWC V2.10 B1813,2013-03-11 20:19:00,
2013-03-11 14:24:00,58.1,26.9,29.61,SSW,202,17.7,17.7,30,0.00,,,0.00,LWC V2.10 B1813,2013-03-11 20:24:00,
2013-03-11 14:29:00,57.9,26.7,29.61,SSW,202,10.5,10.5,30,0.00,,,0.00,LWC V2.10 B1813,2013-03-11 20:29:00,
2013-03-11 14:34:00,58.5,26.4,29.60,WSW,247,6.3,6.3,29,0.00,,,0.00,LWC V2.10 B1813,2013-03-11 20:34:00,
2013-03-11 14:39:00,59.2,26.9,29.61,WSW,247,0.0,3.6,29,0.00,,,0.00,LWC V2.10 B1813,2013-03-11 20:39:00,
2013-03-11 14:44:00,59.4,26.0,29.60,WSW,247,13.0,13.0,28,0.00,,,0.00,LWC V2.10 B1813,2013-03-11 20:44:00,
2013-03-11 14:49:00,59.2,27.0,29.61,ENE,67,0.0,6.7,29,0.00,,,0.00,LWC V2.10 B1813,2013-03-11 20:49:00,
2013-03-11 14:54:00,59.7,26.3,29.61,SSE,157,0.0,0.0,28,0.00,,,0.00,LWC V2.10 B1813,2013-03-11 20:54:00,
2013-03-11 14:59:00,60.4,27.9,29.61,West,270,5.4,5.4,29,0.00,,,0.00,LWC V2.10 B1813,2013-03-11 20:59:00,
2013-03-11 15:04:00,60.6,27.0,29.61,NE,45,3.4,3.4,28,0.00,,,0.00,LWC V2.10 B1813,2013-03-11 21:04:00,
2013-03-11 15:09:00,60.3,26.8,29.61,SW,225,1.6,1.6,28,0.00,,,0.00,LWC V2.10 B1813,2013-03-11 21:09:00,
2013-03-11 15:14:00,60.1,26.6,29.61,SSW,202,3.1,3.1,28,0.00,,,0.00,LWC V2.10 B1813,2013-03-11 21:14:00,
2013-03-11 15:19:00,58.8,25.6,29.61,West,270,1.8,1.8,28,0.00,,,0.00,LWC V2.10 B1813,2013-03-11 21:19:00,
2013-03-11 15:24:00,59.7,26.3,29.61,NW,315,8.1,8.1,28,0.00,,,0.00,LWC V2.10 B1813,2013-03-11 21:24:00,
2013-03-11 15:29:00,59.9,26.5,29.61,WSW,247,0.0,0.0,28,0.00,,,0.00,LWC V2.10 B1813,2013-03-11 21:29:00,
2013-03-11 15:34:00,59.7,27.3,29.61,WSW,247,0.0,5.6,29,0.00,,,0.00,LWC V2.10 B1813,2013-03-11 21:34:00,
2013-03-11 15:39:00,59.7,26.3,29.61,WSW,247,4.5,4.5,28,0.00,,,0.00,LWC V2.10 B1813,2013-03-11 21:39:00,
2013-03-11 15:44:00,59.9,27.4,29.61,WSW,247,6.7,6.7,29,0.00,,,0.00,LWC V2.10 B1813,2013-03-11 21:44:00,
2013-03-11 15:49:00,60.1,26.6,29.62,WSW,247,6.9,6.9,28,0.00,,,0.00,LWC V2.10 B1813,2013-03-11 21:49:00,
2013-03-11 15:54:00,59.5,26.2,29.62,WSW,247,7.2,7.2,28,0.00,,,0.00,LWC V2.10 B1813,2013-03-11 21:54:00,
2013-03-11 15:59:00,58.8,25.6,29.62,WSW,247,6.5,6.5,28,0.00,,,0.00,LWC V2.10 B1813,2013-03-11 21:59:00,
2013-03-11 16:04:00,58.8,25.6,29.62,WSW,247,13.4,13.4,28,0.00,,,0.00,LWC V2.10 B1813,2013-03-11 22:04:00,
2013-03-11 16:09:00,58.8,25.6,29.62,WSW,247,1.8,1.8,28,0.00,,,0.00,LWC V2.10 B1813,2013-03-11 22:09:00,
2013-03-11 16:14:00,59.5,26.2,29.63,WSW,247,3.6,3.6,28,0.00,,,0.00,LWC V2.10 B1813,2013-03-11 22:14:00,
2013-03-11 16:19:00,58.8,25.6,29.62,WSW,247,4.9,4.9,28,0.00,,,0.00,LWC V2.10 B1813,2013-03-11 22:19:00,
2013-03-11 16:24:00,58.8,25.6,29.63,WSW,247,4.5,4.5,28,0.00,,,0.00,LWC V2.10 B1813,2013-03-11 22:24:00,
2013-03-11 16:29:00,58.8,25.6,29.63,WSW,247,0.0,0.0,28,0.00,,,0.00,LWC V2.10 B1813,2013-03-11 22:29:00,
2013-03-11 16:34:00,58.6,25.4,29.63,WSW,247,0.0,0.0,28,0.00,,,0.00,LWC V2.10 B1813,2013-03-11 22:34:00,
2013-03-11 16:39:00,58.8,25.6,29.63,WSW,247,0.0,0.0,28,0.00,,,0.00,LWC V2.10 B1813,2013-03-11 22:39:00,
2013-03-11 16:44:00,58.8,25.6,29.64,WSW,247,4.0,7.2,28,0.00,,,0.00,LWC V2.10 B1813,2013-03-11 22:44:00,
2013-03-11 16:49:00,58.8,25.6,29.64,WSW,247,0.0,0.0,28,0.00,,,0.00,LWC V2.10 B1813,2013-03-11 22:49:00,
2013-03-11 16:54:00,58.8,24.6,29.64,WSW,247,0.0,0.0,27,0.00,,,0.00,LWC V2.10 B1813,2013-03-11 22:54:00,
2013-03-11 16:59:00,57.9,25.4,29.66,WSW,247,8.1,8.1,28,0.00,,,0.00,LWC V2.10 B1813,2013-03-11 22:59:00,
2013-03-11 17:04:00,53.8,27.9,29.67,WSW,247,6.7,7.8,37,0.00,,,0.00,LWC V2.10 B1813,2013-03-11 23:04:00,
2013-03-11 17:09:00,48.7,27.6,29.69,WSW,247,7.2,7.2,44,0.00,,,0.00,LWC V2.10 B1813,2013-03-11 23:09:00,
2013-03-11 17:14:00,45.0,27.0,29.69,ENE,67,2.5,7.4,47,0.00,,,0.00,LWC V2.10 B1813,2013-03-11 23:14:00,
2013-03-11 17:19:00,43.3,26.9,29.71,SSW,202,0.0,5.1,52,0.00,,,0.00,LWC V2.10 B1813,2013-03-11 23:19:00,
2013-03-11 17:24:00,42.4,25.6,29.71,West,270,0.0,0.0,51,0.00,,,0.00,LWC V2.10 B1813,2013-03-11 23:24:00,
2013-03-11 17:29:00,40.6,26.1,29.72,NE,45,2.5,6.0,54,0.00,,,0.00,LWC V2.10 B1813,2013-03-11 23:29:00,
2013-03-11 17:34:00,39.9,26.3,29.72,NNE,22,5.8,5.8,58,0.00,,,0.00,LWC V2.10 B1813,2013-03-11 23:34:00,
2013-03-11 17:39:00,39.4,26.1,29.73,SE,135,0.0,0.0,59,0.00,,,0.00,LWC V2.10 B1813,2013-03-11 23:39:00,
2013-03-11 17:44:00,39.0,25.8,29.73,NNE,22,5.1,5.1,60,0.00,,,0.00,LWC V2.10 B1813,2013-03-11 23:44:00,
2013-03-11 17:49:00,38.5,26.5,29.73,NNE,22,0.0,0.0,62,0.00,,,0.00,LWC V2.10 B1813,2013-03-11 23:49:00,
2013-03-11 17:54:00,38.3,26.7,29.73,SSE,157,0.0,0.0,63,0.00,,,0.00,LWC V2.10 B1813,2013-03-11 23:54:00,
2013-03-11 17:59:00,37.8,25.9,29.75,NNE,22,3.1,3.1,62,0.00,,,0.00,LWC V2.10 B1813,2013-03-11 23:59:00,
2013-03-11 18:04:00,37.6,26.1,29.74,SE,135,0.0,0.0,63,0.00,,,0.00,LWC V2.10 B1813,2013-03-12 00:04:00,
2013-03-11 18:09:00,37.4,25.9,29.75,NE,45,5.6,5.6,63,0.00,,,0.00,LWC V2.10 B1813,2013-03-12 00:09:00,
2013-03-11 18:14:00,36.9,25.8,29.75,NNE,22,0.0,2.2,65,0.00,,,0.00,LWC V2.10 B1813,2013-03-12 00:14:00,
2013-03-11 18:19:00,36.5,25.8,29.75,SE,135,0.0,4.5,65,0.00,,,0.00,LWC V2.10 B1813,2013-03-12 00:19:00,
2013-03-11 18:24:00,36.3,25.7,29.75,SE,135,0.0,0.0,65,0.00,,,0.00,LWC V2.10 B1813,2013-03-12 00:24:00,
2013-03-11 18:29:00,36.3,26.4,29.75,WNW,292,0.0,0.0,67,0.00,,,0.00,LWC V2.10 B1813,2013-03-12 00:29:00,
2013-03-11 18:34:00,35.8,26.2,29.75,NE,45,0.0,2.7,68,0.00,,,0.00,LWC V2.10 B1813,2013-03-12 00:34:00,
2013-03-11 18:39:00,35.6,25.7,29.76,ESE,112,0.0,0.0,67,0.00,,,0.00,LWC V2.10 B1813,2013-03-12 00:39:00,
2013-03-11 18:44:00,35.4,26.2,29.76,NE,45,0.9,2.0,69,0.00,,,0.00,LWC V2.10 B1813,2013-03-12 00:44:00,
2013-03-11 18:49:00,35.2,26.1,29.77,ESE,112,0.0,0.0,69,0.00,,,0.00,LWC V2.10 B1813,2013-03-12 00:49:00,
2013-03-11 18:54:00,35.2,26.1,29.77,SSE,157,0.0,0.0,69,0.00,,,0.00,LWC V2.10 B1813,2013-03-12 00:54:00,
2013-03-11 18:59:00,34.9,26.1,29.77,NNE,22,0.0,0.0,70,0.00,,,0.00,LWC V2.10 B1813,2013-03-12 00:59:00,
2013-03-11 19:04:00,34.5,25.7,29.77,NNE,22,0.4,0.4,70,0.00,,,0.00,LWC V2.10 B1813,2013-03-12 01:04:00,
2013-03-11 19:09:00,34.3,25.8,29.77,NNE,22,5.4,5.4,71,0.00,,,0.00,LWC V2.10 B1813,2013-03-12 01:09:00,
2013-03-11 19:14:00,34.0,25.5,29.77,NNE,22,0.0,0.0,71,0.00,,,0.00,LWC V2.10 B1813,2013-03-12 01:14:00,
2013-03-11 19:19:00,34.0,25.5,29.76,NE,45,0.0,0.0,71,0.00,,,0.00,LWC V2.10 B1813,2013-03-12 01:19:00,
2013-03-11 19:24:00,33.8,25.3,29.77,NE,45,2.0,2.0,71,0.00,,,0.00,LWC V2.10 B1813,2013-03-12 01:24:00,
2013-03-11 19:29:00,33.6,25.8,29.77,NE,45,0.0,0.0,73,0.00,,,0.00,LWC V2.10 B1813,2013-03-12 01:29:00,
2013-03-11 19:34:00,33.4,26.0,29.77,North,0,0.0,0.0,74,0.00,,,0.00,LWC V2.10 B1813,2013-03-12 01:34:00,
2013-03-11 19:39:00,33.1,26.0,29.78,NE,45,0.0,0.0,75,0.00,,,0.00,LWC V2.10 B1813,2013-03-12 01:39:00,
2013-03-11 19:44:00,32.9,25.8,29.78,NE,45,0.0,0.0,75,0.00,,,0.00,LWC V2.10 B1813,2013-03-12 01:44:00,
2013-03-11 19:49:00,32.7,25.6,29.78,NNE,22,0.0,0.0,75,0.00,,,0.00,LWC V2.10 B1813,2013-03-12 01:49:00,
2013-03-11 19:54:00,32.7,26.0,29.78,NNE,22,0.0,0.0,76,0.00,,,0.00,LWC V2.10 B1813,2013-03-12 01:54:00,
2013-03-11 19:59:00,32.5,25.8,29.79,NNE,22,0.0,0.0,76,0.00,,,0.00,LWC V2.10 B1813,2013-03-12 01:59:00,
2013-03-11 20:04:00,32.5,25.8,29.79,NNE,22,0.0,0.0,76,0.00,,,0.00,LWC V2.10 B1813,2013-03-12 02:04:00,
2013-03-11 20:09:00,32.5,25.8,29.79,NNE,22,0.0,0.0,76,0.00,,,0.00,LWC V2.10 B1813,2013-03-12 02:09:00,
2013-03-11 20:14:00,32.4,26.0,29.79,NNE,22,0.0,0.0,77,0.00,,,0.00,LWC V2.10 B1813,2013-03-12 02:14:00,
2013-03-11 20:19:00,32.4,26.0,29.79,NNE,22,0.0,0.0,77,0.00,,,0.00,LWC V2.10 B1813,2013-03-12 02:19:00,
2013-03-11 20:24:00,32.4,26.0,29.79,NNE,22,0.0,0.0,77,0.00,,,0.00,LWC V2.10 B1813,2013-03-12 02:24:00,
2013-03-11 20:29:00,32.4,26.0,29.80,NE,45,0.0,0.0,77,0.00,,,0.00,LWC V2.10 B1813,2013-03-12 02:29:00,
2013-03-11 20:34:00,32.2,25.8,29.80,NE,45,0.0,0.0,77,0.00,,,0.00,LWC V2.10 B1813,2013-03-12 02:34:00,
2013-03-11 20:39:00,32.2,26.1,29.80,NE,45,0.0,0.0,78,0.00,,,0.00,LWC V2.10 B1813,2013-03-12 02:39:00,
2013-03-11 20:44:00,32.2,26.1,29.81,NE,45,0.0,0.0,78,0.00,,,0.00,LWC V2.10 B1813,2013-03-12 02:44:00,
2013-03-11 20:49:00,32.2,26.1,29.81,NE,45,0.0,0.0,78,0.00,,,0.00,LWC V2.10 B1813,2013-03-12 02:49:00,
2013-03-11 20:54:00,32.2,26.4,29.81,NE,45,0.0,0.0,79,0.00,,,0.00,LWC V2.10 B1813,2013-03-12 02:54:00,
2013-03-11 20:59:00,32.2,26.4,29.81,East,90,0.0,0.0,79,0.00,,,0.00,LWC V2.10 B1813,2013-03-12 02:59:00,
2013-03-11 21:04:00,32.0,26.3,29.81,East,90,0.0,0.0,79,0.00,,,0.00,LWC V2.10 B1813,2013-03-12 03:04:00,
2013-03-11 21:09:00,31.8,26.1,29.81,East,90,0.0,0.0,79,0.00,,,0.00,LWC V2.10 B1813,2013-03-12 03:09:00,
2013-03-11 21:14:00,31.8,26.1,29.81,East,90,0.0,0.0,79,0.00,,,0.00,LWC V2.10 B1813,2013-03-12 03:14:00,
2013-03-11 21:19:00,31.8,26.4,29.81,East,90,0.0,0.0,80,0.00,,,0.00,LWC V2.10 B1813,2013-03-12 03:19:00,
2013-03-11 21:24:00,31.8,26.4,29.81,East,90,0.0,0.0,80,0.00,,,0.00,LWC V2.10 B1813,2013-03-12 03:24:00,
2013-03-11 21:29:00,31.8,26.4,29.81,East,90,0.0,0.0,80,0.00,,,0.00,LWC V2.10 B1813,2013-03-12 03:29:00,
2013-03-11 21:34:00,31.8,26.4,29.81,East,90,0.0,0.0,80,0.00,,,0.00,LWC V2.10 B1813,2013-03-12 03:34:00,
2013-03-11 21:39:00,31.6,26.2,29.81,East,90,0.0,0.0,80,0.00,,,0.00,LWC V2.10 B1813,2013-03-12 03:39:00,
2013-03-11 21:44:00,31.6,26.2,29.81,East,90,0.0,0.0,80,0.00,,,0.00,LWC V2.10 B1813,2013-03-12 03:44:00,
2013-03-11 21:49:00,31.6,26.2,29.81,East,90,0.0,0.0,80,0.00,,,0.00,LWC V2.10 B1813,2013-03-12 03:49:00,
2013-03-11 21:54:00,31.6,26.2,29.81,East,90,0.0,0.0,80,0.00,,,0.00,LWC V2.10 B1813,2013-03-12 03:54:00,
2013-03-11 21:59:00,31.6,26.5,29.82,East,90,0.0,0.0,81,0.00,,,0.00,LWC V2.10 B1813,2013-03-12 03:59:00,
2013-03-11 22:00:00,31.6,26.5,29.82,East,90,0.0,0.0,81,0.00,,,0.00,LWC V2.10 B1813,2013-03-12 04:00:00,
2013-03-11 22:01:00,31.6,26.5,29.82,East,90,0.0,0.0,81,0.00,,,0.00,LWC V2.10 B1813,2013-03-12 04:01:00,
2013-03-11 22:06:00,31.6,26.5,29.83,East,90,0.0,0.0,81,0.00,,,0.00,LWC V2.10 B1813,2013-03-12 04:06:00,
2013-03-11 22:11:00,31.6,26.5,29.83,East,90,0.0,0.0,81,0.00,,,0.00,LWC V2.10 B1813,2013-03-12 04:11:00,
2013-03-11 22:16:00,31.6,26.5,29.82,East,90,0.0,0.0,81,0.00,,,0.00,LWC V2.10 B1813,2013-03-12 04:16:00,
2013-03-11 22:21:00,31.6,26.5,29.82,East,90,0.0,0.0,81,0.00,,,0.00,LWC V2.10 B1813,2013-03-12 04:21:00,
2013-03-11 22:22:00,31.6,26.5,29.82,East,90,0.0,0.0,81,0.00,,,0.00,LWC V2.10 B1813,2013-03-12 04:22:00,
2013-03-11 22:27:00,31.6,26.5,29.83,East,90,0.0,0.0,81,0.00,,,0.00,LWC V2.10 B1813,2013-03-12 04:27:00,
2013-03-11 22:32:00,31.6,26.5,29.83,East,90,0.0,0.0,81,0.00,,,0.00,LWC V2.10 B1813,2013-03-12 04:32:00,
2013-03-11 22:37:00,31.6,26.5,29.84,East,90,0.0,0.0,81,0.00,,,0.00,LWC V2.10 B1813,2013-03-12 04:37:00,
2013-03-11 22:42:00,31.6,26.5,29.84,East,90,0.0,0.0,81,0.00,,,0.00,LWC V2.10 B1813,2013-03-12 04:42:00,
2013-03-11 22:47:00,31.6,26.5,29.84,East,90,0.0,0.0,81,0.00,,,0.00,LWC V2.10 B1813,2013-03-12 04:47:00,
2013-03-11 22:52:00,31.6,26.5,29.84,East,90,0.0,0.0,81,0.00,,,0.00,LWC V2.10 B1813,2013-03-12 04:52:00,
2013-03-11 22:57:00,31.5,26.3,29.84,East,90,0.0,0.0,81,0.00,,,0.00,LWC V2.10 B1813,2013-03-12 04:57:00,
2013-03-11 23:03:00,31.3,26.5,29.84,East,90,0.0,0.0,82,0.00,,,0.00,LWC V2.10 B1813,2013-03-12 05:03:00,
2013-03-11 23:08:00,31.3,26.5,29.84,East,90,0.0,0.0,82,0.00,,,0.00,LWC V2.10 B1813,2013-03-12 05:08:00,
2013-03-11 23:13:00,31.3,26.5,29.84,East,90,0.0,0.0,82,0.00,,,0.00,LWC V2.10 B1813,2013-03-12 05:13:00,
2013-03-11 23:18:00,31.3,26.5,29.84,East,90,0.0,0.0,82,0.00,,,0.00,LWC V2.10 B1813,2013-03-12 05:18:00,
2013-03-11 23:23:00,31.3,26.5,29.83,East,90,0.0,0.0,82,0.00,,,0.00,LWC V2.10 B1813,2013-03-12 05:23:00,
2013-03-11 23:28:00,31.3,26.5,29.83,East,90,0.0,0.0,82,0.00,,,0.00,LWC V2.10 B1813,2013-03-12 05:28:00,
2013-03-11 23:33:00,31.1,26.3,29.83,East,90,0.0,0.0,82,0.00,,,0.00,LWC V2.10 B1813,2013-03-12 05:33:00,
2013-03-11 23:38:00,30.9,26.1,29.83,East,90,0.0,0.0,82,0.00,,,0.00,LWC V2.10 B1813,2013-03-12 05:38:00,
2013-03-11 23:43:00,30.7,25.9,29.83,East,90,0.0,0.0,82,0.00,,,0.00,LWC V2.10 B1813,2013-03-12 05:43:00,
2013-03-11 23:48:00,30.4,25.6,29.83,East,90,0.0,0.0,82,0.00,,,0.00,LWC V2.10 B1813,2013-03-12 05:48:00,
2013-03-11 23:53:00,29.7,24.8,29.84,East,90,0.0,0.0,82,0.00,,,0.00,LWC V2.10 B1813,2013-03-12 05:53:00,
2013-03-11 23:58:00,29.3,24.5,29.84,East,90,0.0,0.0,82,0.00,,,0.00,LWC V2.10 B1813,2013-03-12 05:58:00,